Location: Fisheating Creek Campgrounds
(26.9333°N, 81.3167°W)
Time: 09:32:49
(UTC-04:00)

Cosmos 2221 Rocket - Visible Passes

Search period start: 21 October 2014 00:00
Search period end: 31 October 2014 00:00
Orbit: 621 x 651 km, 82.5° (Epoch: 19 October)

Date Brightness Start Highest point End Pass type
(mag) Time Alt. Az. Time Alt. Az. Time Alt. Az.
21 Oct 7.1 05:54:58 10° ENE 05:55:22 10° ENE 05:55:46 10° E visible
21 Oct 4.9 19:55:28 10° SSW 19:59:45 43° W 20:04:02 10° N visible
22 Oct 6.0 06:14:34 10° NNE 06:18:10 24° E 06:21:45 10° SE visible
22 Oct 6.5 20:19:20 10° WSW 20:22:28 19° WNW 20:25:37 10° NW visible
23 Oct 4.2 06:36:29 10° N 06:40:50 60° E 06:45:11 10° SSE visible
24 Oct 3.7 06:59:06 10° NNW 07:03:23 53° W 07:07:40 10° S visible
24 Oct 4.5 19:25:01 10° SSW 19:29:25 54° W 19:33:48 10° N visible
25 Oct 6.3 05:44:33 10° NNE 05:47:47 20° E 05:51:01 10° SE visible
25 Oct 6.2 19:48:34 10° SW 19:52:06 23° W 19:55:37 10° NNW visible
26 Oct 4.6 06:06:14 10° N 06:10:29 47° E 06:14:44 10° SSE visible
27 Oct 3.5 06:28:41 10° NNW 06:33:03 67° W 06:37:26 10° S visible
28 Oct 6.4 05:14:38 10° NE 05:17:24 16° ENE 05:20:09 10° ESE visible
28 Oct 4.5 06:51:49 10° NNW 06:55:31 27° W 06:59:14 10° SSW visible
28 Oct 5.9 19:17:53 10° SW 19:21:43 28° W 19:25:32 10° NNW visible
29 Oct 5.0 05:36:00 10° NNE 05:40:07 38° E 05:44:13 10° SSE visible
29 Oct 6.9 19:42:50 10° W 19:44:29 12° WNW 19:46:08 10° NW visible
30 Oct 3.4 05:58:18 10° N 06:02:43 85° W 06:07:09 10° S visible
